Date String (YYYY-MM-DD hh:mm:ss) UTC,Instrument flags,Ambient pressure (hPa),Sample flow (lpm),Bypass flow (lpm),Sample temperature (°C),Ambient temperature (°C),ASC tube jacket temperature (°C),LED temperature (°C),Box temperature (°C),Sample RH (%),Span deviation,Mass concentration (μg/m³),Mass concentration (μg/m³),Mass concentration (μg/m³)
DateTimeUTC,F1_M11,P_M11,Q1_M11,Q2_M11,T1_M11,T2_M11,T3_M11,T4_M11,T5_M11,U1_M11,ZSPAN_M11,X0_M11,X2_M11,X1_M11
2023-05-23 13:00:00,,0830.7,4.99,0.00,29.0,27.4,00.0,37.3,30.6,19.4,0003.9,0036.35,0025.72,0024.51
2023-05-23 13:01:00,,0830.7,4.99,0.00,29.0,27.4,00.0,37.3,30.6,19.4,0003.9,0035.91,0025.59,0024.37
2023-05-23 13:02:00,,0830.7,4.99,0.00,29.0,27.4,00.0,37.3,30.6,19.5,0003.9,0036.78,0025.51,0024.25
2023-05-23 13:03:00,,0830.7,5.00,0.00,29.0,27.4,00.0,37.3,30.6,19.4,0003.9,0036.75,0025.43,0024.17
2023-05-23 13:04:00,,0830.7,5.00,0.00,29.0,27.4,00.0,37.3,30.6,19.2,0003.8,0036.91,0025.31,0024.07
2023-05-23 13:05:00,,0830.7,5.01,0.00,29.0,27.4,00.0,37.3,30.6,19.1,0003.7,0035.78,0025.15,0023.93
2023-05-23 13:06:00,,0830.7,5.01,0.00,29.0,27.4,00.0,37.3,30.6,19.1,0003.7,0035.67,0025.08,0023.83
2023-05-23 13:07:00,,0830.8,5.00,0.00,29.0,27.4,00.0,37.3,30.6,19.2,0003.5,0035.47,0024.95,0023.73
2023-05-23 13:08:00,,0830.8,4.99,0.00,29.0,27.4,00.0,37.3,30.6,19.3,0003.4,0035.29,0024.81,0023.60
2023-05-23 13:09:00,,0830.8,5.00,0.00,29.0,27.3,00.0,37.3,30.6,19.5,0003.3,0035.27,0024.77,0023.54
2023-05-23 13:10:00,,0830.8,5.01,0.00,29.0,27.3,00.0,37.3,30.6,19.4,0003.3,0035.24,0024.74,0023.49
2023-05-23 13:11:00,,0830.7,5.01,0.00,29.0,27.3,00.0,37.3,30.6,19.4,0003.4,0035.04,0024.59,0023.34
2023-05-23 13:12:00,,0830.8,5.00,0.00,29.0,27.3,00.0,37.3,30.6,20.9,0003.4,0035.77,0024.52,0023.22
2023-05-23 13:13:00,,0830.8,5.00,0.00,29.0,27.3,00.0,37.3,30.6,20.0,0003.3,0035.13,0024.35,0023.08
2023-05-23 13:14:00,,0830.8,4.99,0.00,29.0,27.3,00.0,37.3,30.6,19.6,0003.2,0034.66,0024.22,0022.96
2023-05-23 13:15:00,,0830.8,4.99,0.00,29.0,27.2,00.0,37.3,30.6,19.5,0003.3,0034.41,0024.17,0022.93
2023-05-23 13:16:00,,0830.8,5.00,0.00,28.9,27.2,00.0,37.3,30.5,19.6,0003.4,0034.19,0024.19,0022.96
2023-05-23 13:17:00,,0830.8,5.00,0.00,28.9,27.2,00.0,37.3,30.5,20.3,0003.4,0034.08,0024.11,0022.90
2023-05-23 13:18:00,,0830.7,5.00,0.00,28.9,27.2,00.0,37.3,30.5,20.8,0003.4,0033.95,0024.03,0022.85
2023-05-23 13:19:00,,0830.8,5.00,0.00,28.9,27.2,00.0,37.3,30.5,20.5,0003.5,0035.56,0024.08,0022.89
2023-05-23 13:20:00,,0830.7,5.00,0.00,28.9,27.1,00.0,37.3,30.5,20.2,0003.6,0035.94,0024.07,0022.92
2023-05-23 13:21:00,,0830.7,5.00,0.00,28.9,27.1,00.0,37.3,30.5,20.0,0003.6,0035.88,0024.07,0022.93
2023-05-23 13:22:00,,0830.8,5.00,0.00,28.9,27.1,00.0,37.3,30.5,20.3,0003.5,0036.05,0024.13,0022.97
2023-05-23 13:23:00,,0830.8,4.99,0.00,28.9,27.1,00.0,37.3,30.5,20.4,0003.5,0036.55,0024.16,0023.01
2023-05-23 13:24:00,,0830.8,5.00,0.00,28.9,27.1,00.0,37.3,30.5,19.8,0003.5,0036.86,0024.20,0023.06
2023-05-23 13:25:00,,0830.8,5.00,0.00,28.9,27.1,00.0,37.3,30.5,20.1,0003.6,0037.00,0024.28,0023.14
2023-05-23 13:26:00,,0830.8,5.00,0.00,28.9,27.0,00.0,37.3,30.5,20.1,0003.5,0037.41,0024.29,0023.14
2023-05-23 13:27:00,,0830.8,5.00,0.00,28.9,27.1,00.0,37.3,30.5,20.4,0003.3,0037.69,0024.27,0023.11
2023-05-23 13:28:00,,0830.8,5.00,0.00,28.9,27.1,00.0,37.2,30.5,20.4,0003.4,0037.91,0024.29,0023.14
2023-05-23 13:29:00,,0830.9,5.01,0.00,28.9,27.1,00.0,37.2,30.5,20.0,0003.5,0038.07,0024.37,0023.19
2023-05-23 13:30:00,,0830.8,5.01,0.00,28.8,27.1,00.0,37.2,30.5,20.3,0003.4,0036.94,0024.37,0023.21
2023-05-23 13:31:00,,0830.9,5.00,0.00,28.8,27.1,00.0,37.2,30.5,20.7,0003.5,0036.00,0024.41,0023.23
2023-05-23 13:32:00,,0830.8,4.99,0.00,28.9,27.1,00.0,37.2,30.5,20.2,0003.5,0036.46,0024.36,0023.20
2023-05-23 13:33:00,,0830.8,4.99,0.00,28.8,27.1,00.0,37.2,30.5,20.4,0003.5,0037.25,0024.33,0023.21
2023-05-23 13:34:00,,0830.8,4.99,0.00,28.8,27.1,00.0,37.2,30.5,20.2,0003.4,0036.97,0024.32,0023.23
2023-05-23 13:35:00,,0830.8,5.00,0.00,28.8,27.1,00.0,37.2,30.5,20.1,0003.4,0036.57,0024.30,0023.26
2023-05-23 13:36:00,,0830.8,5.01,0.00,28.8,27.1,00.0,37.2,30.5,20.9,0003.5,0036.40,0024.28,0023.26
2023-05-23 13:37:00,,0830.8,5.01,0.00,28.8,27.1,00.0,37.2,30.5,20.6,0003.5,0035.77,0024.27,0023.27
2023-05-23 13:38:00,,0830.8,5.00,0.00,28.8,27.2,00.0,37.2,30.4,20.4,0003.5,0036.53,0024.29,0023.27
2023-05-23 13:39:00,,0830.8,5.00,0.00,28.8,27.2,00.0,37.2,30.4,20.6,0003.5,0036.73,0024.32,0023.25
2023-05-23 13:40:00,,0830.8,4.99,0.00,28.9,27.2,00.0,37.2,30.5,20.3,0003.5,0037.61,0024.38,0023.26
2023-05-23 13:41:00,,0830.8,5.00,0.00,28.9,27.2,00.0,37.2,30.5,20.6,0003.5,0038.36,0024.42,0023.27
2023-05-23 13:42:00,,0830.8,5.00,0.00,28.9,27.2,00.0,37.2,30.5,21.1,0003.5,0038.51,0024.40,0023.26
2023-05-23 13:43:00,,0830.8,5.00,0.00,28.9,27.2,00.0,37.2,30.5,21.1,0003.5,0038.18,0024.45,0023.28
2023-05-23 13:44:00,,0830.8,5.00,0.00,28.9,27.2,00.0,37.2,30.5,20.5,0003.4,0037.61,0024.50,0023.30
2023-05-23 13:45:00,,0830.8,5.00,0.00,28.9,27.2,00.0,37.2,30.5,21.0,0003.5,0037.90,0024.59,0023.32
2023-05-23 13:46:00,,0830.8,5.01,0.00,28.9,27.3,00.0,37.2,30.5,20.5,0003.5,0037.38,0024.66,0023.35
2023-05-23 13:47:00,,0830.7,5.01,0.00,28.9,27.3,00.0,37.2,30.5,20.9,0003.4,0037.72,0024.76,0023.39
2023-05-23 13:48:00,,0830.7,4.98,0.00,28.9,27.3,00.0,37.2,30.5,21.0,0003.4,0037.78,0024.76,0023.40
2023-05-23 13:49:00,,0830.7,4.99,0.00,28.9,27.3,00.0,37.2,30.5,20.8,0003.5,0037.16,0024.80,0023.43
2023-05-23 13:50:00,,0830.7,5.01,0.00,28.9,27.3,00.0,37.2,30.5,21.2,0003.6,0036.67,0024.85,0023.50
2023-05-23 13:51:00,,0830.8,5.00,0.00,28.9,27.3,00.0,37.2,30.5,20.4,0003.5,0036.52,0024.85,0023.53
2023-05-23 13:52:00,,0830.8,5.00,0.00,28.9,27.3,00.0,37.2,30.5,20.4,0003.4,0036.23,0024.85,0023.52
2023-05-23 13:53:00,,0830.8,5.00,0.00,28.9,27.3,00.0,37.3,30.5,20.6,0003.3,0035.93,0024.85,0023.50
2023-05-23 13:54:00,,0830.8,4.99,0.00,28.9,27.3,00.0,37.3,30.5,20.8,0003.3,0036.53,0024.84,0023.50
2023-05-23 13:55:00,,0830.8,5.00,0.00,29.0,27.4,00.0,37.3,30.6,20.9,0003.4,0036.71,0024.80,0023.45
2023-05-23 13:56:00,,0830.8,4.99,0.00,29.0,27.4,00.0,37.3,30.6,21.9,0003.5,0036.16,0024.75,0023.45
2023-05-23 13:57:00,,0830.8,5.00,0.00,29.0,27.4,00.0,37.3,30.6,21.9,0003.6,0036.75,0024.70,0023.38
2023-05-23 13:58:00,,0830.8,5.00,0.00,29.0,27.4,00.0,37.3,30.6,21.6,0003.5,0036.55,0024.62,0023.35
2023-05-23 13:59:00,,0830.8,5.00,0.00,29.0,27.4,00.0,37.3,30.6,21.5,0003.5,0036.91,0024.64,0023.35
